OTTER BROOK LAKE : From 03/10/2019 02:00 to 03/24/2019 11:00

Date STAGE [FT] FLOW [CFS] LAKE ELEVATION [FT] PRECIPITATION INCREMENT [IN] AIR TEMPERATURE [DEGF]
03/24/2019 00:00 -- -- -- 0.00 --
03/23/2019 23:00 6.66 -- 22.93 0.00 24.4
03/23/2019 22:00 6.66 -- 22.94 0.00 24.3
03/23/2019 21:00 6.66 -- 22.96 0.00 25.2
03/23/2019 20:00 6.66 -- 22.96 0.00 27.4
03/23/2019 19:00 6.66 -- 22.98 0.00 29.5
03/23/2019 18:00 6.66 -- 22.99 0.00 30.4
03/23/2019 17:00 6.66 80.3 22.99 0.00 32.7
03/23/2019 16:00 6.66 80.3 22.99 0.00 34.6
03/23/2019 15:00 6.66 80.3 22.99 0.00 35.2
03/23/2019 14:00 6.66 80.3 23.00 0.00 37.4
03/23/2019 13:00 6.66 80.3 23.01 0.00 39.7
03/23/2019 12:00 6.66 80.3 23.02 0.00 41.2
03/23/2019 11:00 6.66 80.3 23.01 0.00 42.9
03/23/2019 10:00 6.66 80.3 23.05 0.00 40.2
03/23/2019 09:00 6.66 80.3 23.02 0.00 36.8
03/23/2019 08:00 6.66 80.3 23.05 0.00 34.2
03/23/2019 07:00 6.66 80.3 23.03 0.00 33.9
03/23/2019 06:00 6.66 80.3 23.05 0.00 33.3
03/23/2019 05:00 6.66 80.3 23.05 0.00 30.0
03/23/2019 04:00 6.66 80.3 23.06 0.00 29.8
03/23/2019 03:00 6.66 80.3 23.04 0.00 30.7
03/23/2019 02:00 6.66 80.3 23.04 0.00 29.6
03/23/2019 01:00 6.66 80.3 23.03 0.02 29.9
03/23/2019 00:00 6.66 80.3 23.03 0.04 29.8
03/22/2019 23:00 6.66 80.3 23.03 0.01 31.4
03/22/2019 22:00 6.66 80.3 23.00 0.01 32.1
03/22/2019 21:00 6.66 80.3 22.99 0.03 32.1
03/22/2019 20:00 6.66 80.3 22.98 0.04 33.2
03/22/2019 19:00 6.66 80.3 22.96 0.07 34.1
03/22/2019 18:00 6.66 80.3 22.93 0.03 34.7
03/22/2019 17:00 6.66 80.3 22.91 0.01 35.0
03/22/2019 16:00 6.66 80.3 22.89 0.01 35.6
03/22/2019 15:00 6.65 78.9 22.87 0.00 35.4
03/22/2019 14:00 6.66 80.3 22.85 0.00 35.9
03/22/2019 13:00 6.66 80.3 22.82 0.00 36.9
03/22/2019 12:00 6.66 80.3 22.81 0.02 36.8
03/22/2019 11:00 6.66 80.3 22.80 0.01 37.7
03/22/2019 10:00 6.66 80.3 22.78 0.02 38.4
03/22/2019 09:00 6.66 80.3 22.77 0.01 38.1
03/22/2019 08:00 6.66 80.3 22.77 0.03 37.3
03/22/2019 07:00 6.66 80.3 22.76 0.03 36.4
03/22/2019 06:00 6.66 80.3 22.76 0.01 36.7
03/22/2019 05:00 -- -- 22.76 0.00 36.3
03/22/2019 04:00 6.66 80.3 22.74 0.00 36.2
03/22/2019 03:00 6.66 80.3 22.76 0.02 35.3
03/22/2019 02:00 6.66 80.3 22.77 0.00 36.8
03/22/2019 01:00 6.66 80.3 22.77 0.02 35.8
03/22/2019 00:00 6.66 80.3 22.77 0.00 36.0
03/21/2019 23:00 6.65 78.9 22.77 0.03 36.9
03/21/2019 22:00 6.66 80.3 22.77 0.02 35.9
03/21/2019 21:00 6.65 78.9 22.77 0.00 37.7
03/21/2019 20:00 6.66 80.3 22.76 0.00 39.2
03/21/2019 19:00 6.65 78.9 22.76 0.00 39.2
03/21/2019 18:00 6.66 80.3 22.76 0.00 39.7
03/21/2019 17:00 6.66 80.3 22.77 0.00 37.3
03/21/2019 16:00 6.66 80.3 22.77 0.00 37.7
03/21/2019 15:00 -- -- 22.77 0.00 39.1
03/21/2019 14:00 6.66 80.3 22.78 0.00 40.1
03/21/2019 13:00 6.65 78.9 22.78 0.00 41.7
03/21/2019 12:00 6.66 80.3 22.79 0.00 44.6
03/21/2019 11:00 6.65 78.9 22.79 0.00 46.4
03/21/2019 10:00 6.65 78.9 22.81 0.00 46.0
03/21/2019 09:00 6.66 80.3 22.83 0.00 44.5
03/21/2019 08:00 6.65 78.9 22.85 0.00 43.2
03/21/2019 07:00 6.65 78.9 22.86 0.00 46.4
03/21/2019 06:00 6.66 80.3 22.88 0.00 44.8
03/21/2019 05:00 6.65 78.9 22.90 0.00 43.0
03/21/2019 04:00 6.65 78.9 22.92 0.00 36.7
03/21/2019 03:00 6.65 78.9 22.94 0.00 31.6
03/21/2019 02:00 6.66 80.3 22.96 0.00 30.3
03/21/2019 01:00 6.66 80.3 22.98 0.00 29.6
03/21/2019 00:00 6.66 80.3 22.99 0.00 30.2
03/20/2019 23:00 6.66 80.3 23.01 0.00 30.2
03/20/2019 22:00 6.66 80.3 23.02 0.00 29.1
03/20/2019 21:00 6.66 80.3 23.03 0.00 30.0
03/20/2019 20:00 6.66 80.3 23.04 0.00 30.6
03/20/2019 19:00 6.66 80.3 23.05 0.00 32.6
03/20/2019 18:00 6.66 80.3 23.05 0.00 35.5
03/20/2019 17:00 6.66 80.3 23.05 0.00 32.8
03/20/2019 16:00 6.66 80.3 23.07 0.00 32.7
03/20/2019 15:00 6.66 80.3 23.08 0.00 36.2
03/20/2019 14:00 6.66 80.3 23.08 0.00 40.3
03/20/2019 13:00 6.66 80.3 23.08 0.00 48.3
03/20/2019 12:00 6.66 80.3 23.09 0.00 51.4
03/20/2019 11:00 6.66 80.3 23.11 0.00 51.5
03/20/2019 10:00 6.66 80.3 23.12 0.00 49.8
03/20/2019 09:00 6.85 114.7 23.18 0.00 49.1
03/20/2019 08:00 6.85 114.7 23.23 0.00 48.4
03/20/2019 07:00 6.85 114.7 23.27 0.00 44.9
03/20/2019 06:00 6.86 116.7 23.34 0.00 40.7
03/20/2019 05:00 6.85 114.7 23.40 0.00 36.5
03/20/2019 04:00 6.85 114.7 23.46 0.00 30.4
03/20/2019 03:00 6.85 114.7 23.52 0.00 21.2
03/20/2019 02:00 7.10 167.1 23.60 0.00 20.5
03/20/2019 01:00 7.09 164.8 23.71 0.00 22.0
03/20/2019 00:00 7.11 169.3 23.83 0.00 22.7
03/19/2019 23:00 7.11 169.3 23.94 0.00 23.0
03/19/2019 22:00 7.11 169.3 24.05 0.00 23.8
03/19/2019 21:00 7.10 167.1 24.16 0.00 24.4
03/19/2019 20:00 7.11 169.3 24.27 0.00 25.1
03/19/2019 19:00 7.11 169.3 24.37 0.00 27.0
03/19/2019 18:00 7.11 169.3 24.47 0.00 26.7
03/19/2019 17:00 7.12 171.6 24.58 0.00 28.7
03/19/2019 16:00 7.11 169.3 24.68 0.00 29.3
03/19/2019 15:00 7.12 171.6 24.78 0.00 30.2
03/19/2019 14:00 7.11 169.3 24.88 0.00 35.9
03/19/2019 13:00 7.12 171.6 24.98 0.00 39.4
03/19/2019 12:00 7.13 174.0 25.08 0.00 41.2
03/19/2019 11:00 7.13 174.0 25.19 0.00 40.5
03/19/2019 10:00 7.13 174.0 25.29 0.00 39.9
03/19/2019 09:00 7.13 174.0 25.39 0.00 38.3
03/19/2019 08:00 7.13 174.0 25.49 0.00 37.7
03/19/2019 07:00 7.13 174.0 25.58 0.00 37.9
03/19/2019 06:00 7.13 174.0 25.68 0.00 34.8
03/19/2019 05:00 7.14 176.3 25.78 0.00 34.9
03/19/2019 04:00 7.14 176.3 25.88 0.00 28.4
03/19/2019 03:00 7.13 174.0 25.98 0.00 23.2
03/19/2019 02:00 7.13 174.0 26.08 0.00 22.3
03/19/2019 01:00 7.14 176.3 26.18 0.00 23.8
03/19/2019 00:00 7.14 176.3 26.28 0.00 23.2
03/18/2019 23:00 7.14 176.3 26.37 0.00 24.0
03/18/2019 22:00 7.15 178.7 26.47 0.00 22.8
03/18/2019 21:00 7.15 178.7 26.57 0.00 23.7
03/18/2019 20:00 7.15 178.7 26.66 0.00 24.5
03/18/2019 19:00 7.15 178.7 26.74 0.00 25.2
03/18/2019 18:00 7.15 178.7 26.84 0.00 26.6
03/18/2019 17:00 7.14 176.3 26.92 0.00 27.2
03/18/2019 16:00 7.15 178.7 27.01 0.00 27.6
03/18/2019 15:00 7.15 178.7 27.10 0.00 29.3
03/18/2019 14:00 7.15 178.7 27.19 0.00 33.5
03/18/2019 13:00 7.16 181.0 27.27 0.00 36.7
03/18/2019 12:00 7.15 178.7 27.35 0.00 38.5
03/18/2019 11:00 7.17 183.4 27.44 0.00 39.4
03/18/2019 10:00 7.15 178.7 27.53 0.00 36.7
03/18/2019 09:00 7.16 181.0 27.61 0.00 38.8
03/18/2019 08:00 7.16 181.0 27.69 0.00 37.6
03/18/2019 07:00 7.16 181.0 27.76 0.00 34.8
03/18/2019 06:00 6.98 140.8 27.84 0.00 32.6
03/18/2019 05:00 6.98 140.8 27.89 0.00 32.9
03/18/2019 04:00 6.71 87.9 27.95 0.00 25.0
03/18/2019 03:00 6.71 87.9 27.97 0.00 20.7
03/18/2019 02:00 6.25 34.2 27.93 0.00 19.6
03/18/2019 01:00 6.25 34.2 27.89 0.00 19.0
03/18/2019 00:00 6.25 34.2 27.86 0.00 20.1
03/17/2019 23:00 6.25 34.2 27.82 0.00 20.4
03/17/2019 22:00 6.25 34.2 27.78 0.00 20.4
03/17/2019 21:00 6.25 34.2 27.73 0.00 22.1
03/17/2019 20:00 6.25 34.2 27.69 0.00 24.6
03/17/2019 19:00 6.25 34.2 27.64 0.00 26.1
03/17/2019 18:00 6.25 34.2 27.60 0.00 27.8
03/17/2019 17:00 6.25 34.2 27.54 0.00 28.2
03/17/2019 16:00 6.25 34.2 27.49 0.00 28.8
03/17/2019 15:00 6.25 34.2 27.44 0.00 30.3
03/17/2019 14:00 6.25 34.2 27.39 0.00 31.7
03/17/2019 13:00 -- -- 27.30 0.00 35.6
03/17/2019 12:00 6.25 34.2 27.27 0.00 34.8
03/17/2019 11:00 6.25 34.2 27.22 0.00 37.5
03/17/2019 10:00 6.25 34.2 27.15 0.00 35.5
03/17/2019 09:00 6.25 34.2 27.10 0.00 36.4
03/17/2019 08:00 6.25 34.2 27.04 0.00 35.7
03/17/2019 07:00 6.25 34.2 26.97 0.00 33.9
03/17/2019 06:00 6.25 34.2 26.90 0.00 32.9
03/17/2019 05:00 6.25 34.2 26.85 0.00 31.1
03/17/2019 04:00 6.24 33.3 26.77 0.00 30.1
03/17/2019 03:00 6.24 33.3 26.70 0.00 29.4
03/17/2019 02:00 6.25 34.2 26.64 0.00 28.1
03/17/2019 01:00 6.24 33.3 26.56 0.00 28.5
03/17/2019 00:00 6.24 33.3 26.49 0.00 28.6
03/16/2019 23:00 6.24 33.3 26.41 0.00 29.6
03/16/2019 22:00 6.24 33.3 26.33 0.00 31.6
03/16/2019 21:00 6.24 33.3 26.25 0.00 31.7
03/16/2019 20:00 6.24 33.3 26.17 0.00 32.4
03/16/2019 19:00 6.24 33.3 26.07 0.00 32.6
03/16/2019 18:00 6.24 33.3 25.97 0.00 33.5
03/16/2019 17:00 6.24 33.3 25.87 0.00 33.4
03/16/2019 16:00 6.24 33.3 25.76 0.00 34.6
03/16/2019 15:00 6.24 33.3 25.67 0.00 35.3
03/16/2019 14:00 6.24 33.3 25.55 0.00 35.9
03/16/2019 13:00 6.24 33.3 25.46 0.00 37.3
03/16/2019 12:00 6.24 33.3 25.33 0.00 39.1
03/16/2019 11:00 6.24 33.3 25.24 0.00 40.5
03/16/2019 10:00 6.23 32.5 25.11 0.00 40.5
03/16/2019 09:00 6.23 32.5 25.04 0.00 40.5
03/16/2019 08:00 6.23 32.5 24.93 0.00 39.5
03/16/2019 07:00 6.23 32.5 24.82 0.00 41.0
03/16/2019 06:00 6.23 32.5 24.70 0.00 42.0
03/16/2019 05:00 6.23 32.5 24.58 0.00 42.3
03/16/2019 04:00 6.23 32.5 24.48 0.00 42.6
03/16/2019 03:00 6.23 32.5 24.37 0.00 41.6
03/16/2019 02:00 6.23 32.5 24.24 0.00 41.6
03/16/2019 01:00 6.23 32.5 24.14 0.00 41.9
03/16/2019 00:00 6.22 31.7 24.01 0.00 41.4
03/15/2019 23:00 6.23 32.5 23.90 0.00 41.1
03/15/2019 22:00 6.22 31.7 23.77 0.00 41.3
03/15/2019 21:00 6.22 31.7 23.64 0.00 40.2
03/15/2019 20:00 6.22 31.7 23.51 0.00 39.9
03/15/2019 19:00 6.22 31.7 23.38 0.00 43.0
03/15/2019 18:00 6.22 31.7 23.26 0.00 38.7
03/15/2019 17:00 6.22 31.7 23.14 0.00 39.5
03/15/2019 16:00 6.22 31.7 23.02 0.00 39.4
03/15/2019 15:00 6.22 31.7 22.90 0.00 41.1
03/15/2019 14:00 6.22 31.7 22.79 0.00 45.2
03/15/2019 13:00 6.22 31.7 22.70 0.00 51.8
03/15/2019 12:00 6.22 31.7 22.61 0.00 52.9
03/15/2019 11:00 6.21 30.9 22.55 0.00 59.8
03/15/2019 10:00 6.21 30.9 22.49 0.00 50.2
03/15/2019 09:00 6.21 30.9 22.44 0.00 46.4
03/15/2019 08:00 6.21 30.9 22.39 0.00 45.2
03/15/2019 07:00 6.21 30.9 22.36 0.01 42.1
03/15/2019 06:00 6.21 30.9 22.32 0.00 42.7
03/15/2019 05:00 6.21 30.9 22.30 0.00 41.3
03/15/2019 04:00 6.21 30.9 22.26 0.01 39.1
03/15/2019 03:00 6.21 30.9 22.24 0.01 40.2
03/15/2019 02:00 6.21 30.9 22.21 0.00 40.1
03/15/2019 01:00 -- -- 22.19 0.00 44.1
03/15/2019 00:00 6.21 30.9 22.18 0.00 42.6
03/14/2019 23:00 6.21 30.9 22.16 0.00 41.4
03/14/2019 22:00 6.21 30.9 22.15 0.00 40.0
03/14/2019 21:00 6.20 30.1 22.14 0.00 39.9
03/14/2019 20:00 6.20 30.1 22.12 0.00 39.2
03/14/2019 19:00 6.21 30.9 22.11 0.00 39.2
03/14/2019 18:00 6.21 30.9 22.10 0.00 39.0
03/14/2019 17:00 6.21 30.9 22.09 0.00 38.4
03/14/2019 16:00 6.21 30.9 22.09 0.00 40.1
03/14/2019 15:00 6.21 30.9 22.07 0.00 40.6
03/14/2019 14:00 6.21 30.9 22.07 0.00 41.3
03/14/2019 13:00 6.21 30.9 22.07 0.00 47.2
03/14/2019 12:00 6.21 30.9 22.06 0.00 54.7
03/14/2019 11:00 6.21 30.9 22.06 0.00 55.1
03/14/2019 10:00 6.21 30.9 22.06 0.00 53.2
03/14/2019 09:00 6.21 30.9 22.06 0.00 49.7
03/14/2019 08:00 6.21 30.9 22.07 0.00 48.7
03/14/2019 07:00 6.21 30.9 22.07 0.00 44.7
03/14/2019 06:00 6.21 30.9 22.07 0.00 43.8
03/14/2019 05:00 6.21 30.9 22.07 0.00 40.3
03/14/2019 04:00 6.21 30.9 22.08 0.00 38.9
03/14/2019 03:00 6.21 30.9 22.08 0.00 35.9
03/14/2019 02:00 6.21 30.9 22.09 0.00 34.9
03/14/2019 01:00 6.21 30.9 22.09 0.00 34.4
03/14/2019 00:00 6.21 30.9 22.09 0.00 34.6
03/13/2019 23:00 6.21 30.9 22.09 0.00 34.7
03/13/2019 22:00 6.21 30.9 22.09 0.00 34.8
03/13/2019 21:00 6.21 30.9 22.10 0.00 35.1
03/13/2019 20:00 6.21 30.9 22.10 0.00 35.4
03/13/2019 19:00 6.21 30.9 22.10 0.00 35.6
03/13/2019 18:00 6.21 30.9 22.10 0.00 34.4
03/13/2019 17:00 6.21 30.9 22.10 0.00 36.1
03/13/2019 16:00 6.21 30.9 22.10 0.00 36.4
03/13/2019 15:00 6.21 30.9 22.10 0.00 35.8
03/13/2019 14:00 6.21 30.9 22.10 0.00 36.9
03/13/2019 13:00 6.21 30.9 22.11 0.00 39.1
03/13/2019 12:00 6.21 30.9 22.11 0.00 42.2
03/13/2019 11:00 6.21 30.9 22.11 0.00 44.0
03/13/2019 10:00 6.21 30.9 22.11 0.00 44.2
03/13/2019 09:00 6.21 30.9 22.12 0.00 45.0
03/13/2019 08:00 6.21 30.9 22.12 0.00 44.7
03/13/2019 07:00 6.21 30.9 22.12 0.00 40.4
03/13/2019 06:00 6.21 30.9 22.13 0.00 39.3
03/13/2019 05:00 6.21 30.9 22.13 0.00 34.7
03/13/2019 04:00 6.21 30.9 22.14 0.00 22.6
03/13/2019 03:00 6.21 30.9 22.14 0.00 18.0
03/13/2019 02:00 6.21 30.9 22.14 0.00 18.2
03/13/2019 01:00 6.21 30.9 22.14 0.00 18.3
03/13/2019 00:00 6.21 30.9 22.15 0.00 20.0
03/12/2019 23:00 6.21 30.9 22.15 0.00 20.2
03/12/2019 22:00 6.21 30.9 22.15 0.00 22.6
03/12/2019 21:00 6.21 30.9 22.15 0.00 24.7
03/12/2019 20:00 6.21 30.9 22.15 0.00 24.5
03/12/2019 19:00 6.21 30.9 22.16 0.00 25.3
03/12/2019 18:00 6.21 30.9 22.15 0.00 25.9
03/12/2019 17:00 6.21 30.9 22.16 0.00 26.4
03/12/2019 16:00 6.22 31.7 22.16 0.00 27.9
03/12/2019 15:00 6.21 30.9 22.15 0.00 31.2
03/12/2019 14:00 6.21 30.9 22.16 0.00 36.3
03/12/2019 13:00 6.21 30.9 22.14 0.00 38.6
03/12/2019 12:00 6.21 30.9 22.15 0.00 40.3
03/12/2019 11:00 6.21 30.9 22.15 0.00 41.4
03/12/2019 10:00 6.21 30.9 22.15 0.00 39.7
03/12/2019 09:00 6.21 30.9 22.18 0.00 38.5
03/12/2019 08:00 6.21 30.9 22.16 0.00 37.7
03/12/2019 07:00 6.21 30.9 22.18 0.00 35.4
03/12/2019 06:00 6.21 30.9 22.17 0.00 35.1
03/12/2019 05:00 6.21 30.9 22.17 0.00 35.9
03/12/2019 04:00 6.21 30.9 22.17 0.00 32.4
03/12/2019 03:00 6.21 30.9 22.17 0.00 31.1
03/12/2019 02:00 6.21 30.9 22.17 0.00 30.2
03/12/2019 01:00 6.21 30.9 22.17 0.00 31.3
03/12/2019 00:00 6.21 30.9 22.17 0.00 32.0
03/11/2019 23:00 6.21 30.9 22.16 0.00 31.9
03/11/2019 22:00 6.21 30.9 22.18 0.00 32.0
03/11/2019 21:00 6.21 30.9 22.17 0.00 32.1
03/11/2019 20:00 6.21 30.9 22.18 0.00 33.4
03/11/2019 19:00 6.21 30.9 22.18 0.00 34.7
03/11/2019 18:00 6.21 30.9 22.17 0.00 35.1
03/11/2019 17:00 6.21 30.9 22.17 0.00 36.0
03/11/2019 16:00 6.21 30.9 22.18 0.00 36.3
03/11/2019 15:00 6.21 30.9 22.17 0.00 36.8
03/11/2019 14:00 6.21 30.9 22.18 0.00 37.7
03/11/2019 13:00 6.21 30.9 22.17 0.00 38.8
03/11/2019 12:00 6.21 30.9 22.17 0.00 39.2
03/11/2019 11:00 6.21 30.9 22.17 0.00 40.0
03/11/2019 10:00 6.21 30.9 22.17 0.00 40.5
03/11/2019 09:00 6.21 30.9 22.17 0.00 41.2
03/11/2019 08:00 6.21 30.9 22.17 0.00 42.6
03/11/2019 07:00 6.21 30.9 22.18 0.00 42.5
03/11/2019 06:00 6.21 30.9 22.19 0.00 43.0
03/11/2019 05:00 6.21 30.9 22.17 0.00 39.4
03/11/2019 04:00 6.21 30.9 22.18 0.00 37.9
03/11/2019 03:00 6.21 30.9 22.18 0.00 36.7
03/11/2019 02:00 6.21 30.9 22.17 0.00 34.9
03/11/2019 01:00 6.21 30.9 22.17 0.00 37.1
03/11/2019 00:00 6.21 30.9 22.18 0.00 36.8
03/10/2019 23:00 6.21 30.9 22.18 0.00 36.5
03/10/2019 22:00 6.21 30.9 22.18 0.00 33.4
03/10/2019 21:00 6.21 30.9 22.17 0.00 33.3
03/10/2019 20:00 6.21 30.9 22.18 0.00 33.5
03/10/2019 19:00 6.21 30.9 22.18 0.00 33.5
03/10/2019 18:00 6.21 30.9 22.18 0.00 33.5
03/10/2019 17:00 6.21 30.9 22.18 0.00 33.6
03/10/2019 16:00 6.21 30.9 22.17 0.00 33.5
03/10/2019 15:00 6.21 30.9 22.18 0.00 34.3
03/10/2019 14:00 6.21 30.9 22.18 0.00 34.0
03/10/2019 13:00 6.21 30.9 22.18 0.00 34.4
03/10/2019 12:00 6.21 30.9 22.19 0.00 34.3
03/10/2019 11:00 6.21 30.9 22.18 0.01 34.5
03/10/2019 10:00 6.21 30.9 22.18 0.00 34.0
03/10/2019 09:00 6.21 30.9 22.18 0.00 33.2
03/10/2019 08:00 6.21 30.9 22.19 0.05 32.5
03/10/2019 07:00 6.21 30.9 22.18 0.08 30.7
03/10/2019 06:00 6.21 30.9 22.17 0.09 30.0
03/10/2019 05:00 -- -- -- -- --
03/10/2019 04:00 -- -- -- -- --
03/10/2019 03:00 -- -- -- -- --
03/10/2019 02:00 -- -- -- -- --